Location: Natural Bridges National Monument
(37.6093°N, 109.9767°W)
Time: 07:29:22
(UTC-06:00)

Amateur Radio Satellites - All Passes

Search period start: 06 May 2015 06:59
Search period end: 07 May 2015 06:59
Location: Natural Bridges National Monument, 37.6093°N, 109.9767°W

Satellite Date Start Highest point End Downlink Frequencies (MHz)
Time Altitude Azimuth
M-CUBED/EXP-1 PRIME 06 May 07:06:52 07:11:42 75° 254° (WSW) 07:16:24 437.505
O/OREOS (USA 219) 06 May 07:06:53 07:11:19 60° 252° (WSW) 07:15:41 437.305
CUTE-I 06 May 07:07:09 07:12:02 37° 97° (E) 07:16:58 437.470
PRISM 06 May 07:11:53 07:15:59 68° 76° (ENE) 07:20:05 437.425
PCSat 06 May 07:13:27 07:18:33 41° 304° (NW) 07:23:40 145.827
Cubesat XI-IV 06 May 07:20:16 07:25:25 50° 99° (E) 07:30:37 437.490
AUBIESAT-1 06 May 07:38:18 07:42:46 39° 257° (WSW) 07:47:07 437.475
ISS 06 May 07:47:46 07:50:49 41° 135° (SE) 07:53:54 145.825
Cosmos 2491 06 May 08:05:51 08:12:07 22° 65° (ENE) 08:18:48 435.465 / 435.565
AO-7 06 May 08:16:02 08:18:42 11° 311° (NW) 08:20:50 29.400- 29.500
STRAND 1 06 May 08:33:27 08:37:35 24° 266° (W) 08:41:37 437.568
SO-50 06 May 08:34:51 08:38:40 27° 112° (ESE) 08:42:42 436.795
CUTE-I 06 May 08:47:35 08:51:59 26° 292° (WNW) 08:56:16 437.470
HO-68 06 May 08:51:42 08:56:34 20° 91° (E) 09:01:44 435.675
Cubesat XI-IV 06 May 09:01:21 09:05:12 20° 294° (WNW) 09:08:52 437.490
YUBILEINY 06 May 09:05:22 09:11:36 23° 83° (E) 09:18:11 435.215
BEESAT 3 06 May 09:11:18 09:15:16 47° 56° (NE) 09:19:10 437.485
AAUSAT CUBESAT 2 06 May 09:17:43 09:18:47 11° 89° (E) 09:20:08 437.432
ISS 06 May 09:24:40 09:27:17 22° 332° (NNW) 09:29:52 145.825
BRITE-PL 06 May 09:27:37 09:33:09 76° 101° (E) 09:38:51 437.365/2234.400
SEEDS 06 May 09:27:55 09:31:13 23° 94° (E) 09:34:36 437.485
BEESAT 2 06 May 09:28:20 09:32:25 59° 58° (ENE) 09:36:24 435.950
DOVE 4 06 May 09:31:16 09:36:06 36° 96° (E) 09:40:58 437.250
GOMX 1 06 May 09:52:05 09:57:34 85° 102° (ESE) 10:03:05 467.674
CANX-2 06 May 09:56:08 10:00:24 70° 101° (E) 10:04:35 2200.000
Cosmos 2491 06 May 10:01:13 10:10:03 75° 266° (W) 10:18:49 435.465 / 435.565
CUTE 1.7 + AOD 2 06 May 10:03:23 10:07:39 76° 102° (ESE) 10:11:52 437.475
ANTELSAT 06 May 10:04:00 10:06:55 17° 67° (ENE) 10:10:00 437.575/2403.000
AIST 2 06 May 10:05:23 10:09:27 44° 55° (NE) 10:13:27 435.215
SO-50 06 May 10:14:52 10:19:06 33° 309° (NW) 10:23:27 436.795
COMPASS 1 06 May 10:18:16 10:22:28 75° 102° (ESE) 10:26:36 437.405
FUNcube-1 06 May 10:19:15 10:21:52 16° 90° (E) 10:24:39 145.935
AIST 1 06 May 10:19:29 10:22:33 19° 73° (ENE) 10:25:45
Oscar 11 06 May 10:19:50 10:23:33 28° 95° (E) 10:27:18 145.826/435.025
CINEMA 3 06 May 10:24:27 10:29:26 61° 99° (E) 10:34:20 145.822/145.860
DUCHIFAT 1 06 May 10:31:52 10:33:49 13° 67° (ENE) 10:35:59 145.980
HO-68 06 May 10:37:50 10:44:58 69° 289° (WNW) 10:52:02 435.675
CUBEBUG 2 06 May 10:40:01 10:44:34 44° 98° (E) 10:49:00 437.445
UWE-3 06 May 10:40:50 10:45:06 36° 96° (E) 10:49:19 435.000/436.395/437.385
DELFI C3 06 May 10:43:04 10:46:49 37° 97° (E) 10:50:34 145.870
HUMSAT D 06 May 10:43:44 10:45:30 13° 89° (E) 10:47:30 437.325/437.525
POLYITAN 1 06 May 10:44:49 10:47:53 20° 69° (ENE) 10:51:03 437.675
TIGRISAT 06 May 10:46:30 10:50:54 45° 73° (ENE) 10:55:25 435.000
ZACube-1 06 May 10:48:32 10:52:40 34° 96° (E) 10:56:46 437.345
AAUSAT CUBESAT 2 06 May 10:50:45 10:54:48 51° 285° (WNW) 10:58:49 437.432
BEESAT 3 06 May 10:50:49 10:52:54 13° 250° (WSW) 10:54:46 437.485
QB50P1 06 May 10:55:48 10:59:16 26° 70° (ENE) 11:02:49 145.935-145.965
UNISAT 6 06 May 10:56:11 11:00:44 60° 75° (ENE) 11:05:24 437.425
YUBILEINY 06 May 10:58:56 11:07:43 69° 280° (W) 11:16:30 435.215
VERMONT LUNAR 06 May 11:01:12 11:03:13 16° 146° (SE) 11:05:19 437.305
SEEDS 06 May 11:03:28 11:07:01 26° 289° (WNW) 11:10:28 437.485
BUGSAT 1 06 May 11:04:56 11:07:56 21° 69° (ENE) 11:11:03 437.445
BRITE-PL 06 May 11:08:03 11:11:08 15° 295° (WNW) 11:13:59 437.365/2234.400
BEESAT 2 06 May 11:09:07 11:10:03 10° 251° (WSW) 11:10:44 435.950
DOVE 4 06 May 11:09:14 11:13:42 27° 291° (WNW) 11:18:04 437.250
DX 1 06 May 11:13:49 11:17:47 33° 98° (E) 11:21:47 434.975-435.025
QB50P2 06 May 11:25:35 11:29:44 59° 75° (ENE) 11:33:58 145.880/145.840
GOMX 1 06 May 11:32:38 11:35:04 13° 296° (WNW) 11:37:12 467.674
VELOX 1 06 May 11:32:47 11:36:28 25° 95° (E) 11:40:14 145.980
NANOSAT C BR1 06 May 11:34:57 11:39:09 74° 76° (ENE) 11:43:24 145.865
ANTELSAT 06 May 11:38:52 11:43:20 46° 262° (W) 11:47:53 437.575/2403.000
UKube-1 06 May 11:39:18 11:43:37 63° 101° (E) 11:47:54 .
ESTCUBE 1 06 May 11:40:50 11:43:46 18° 92° (E) 11:46:52 437.505/2401.250
Cosmos 2504 06 May 11:43:39 11:50:04 24° 84° (E) 11:56:41 435.465 / 435.565
POPSAT HIP 1 06 May 11:43:50 11:48:03 86° 257° (WSW) 11:52:20 437.405
AIST 2 06 May 11:45:11 11:47:42 15° 250° (WSW) 11:50:01 435.215
FUNcube-1 06 May 11:54:08 11:58:29 44° 287° (WNW) 12:02:43 145.935
AISAT 06 May 11:55:02 11:59:23 47° 100° (E) 12:03:43 437.250
Oscar 11 06 May 11:56:12 11:59:37 22° 290° (WNW) 12:02:55 145.826/435.025
AIST 1 06 May 11:56:31 12:00:17 29° 269° (W) 12:04:00
PHONESAT 2.4 06 May 11:56:33 11:58:30 14° 145° (SE) 12:00:31 2401.200-2431.200
Cosmos 2491 06 May 12:02:20 12:05:37 12° 282° (WNW) 12:08:06 435.465 / 435.565
CINEMA 3 06 May 12:03:13 12:06:09 15° 295° (WNW) 12:08:50 145.822/145.860
DUCHIFAT 1 06 May 12:05:11 12:09:16 48° 261° (W) 12:13:23 145.980
50 SAT 06 May 12:10:09 12:14:10 82° 101° (ESE) 12:18:07 437.505
HUMSAT D 06 May 12:17:27 12:21:37 48° 286° (WNW) 12:25:42 437.325/437.525
CUBEBUG 2 06 May 12:17:40 12:20:55 18° 293° (WNW) 12:23:57 437.445
UWE-3 06 May 12:17:54 12:21:25 21° 292° (WNW) 12:24:44 435.000/436.395/437.385
DELFI C3 06 May 12:19:17 12:21:40 15° 292° (WNW) 12:23:54 145.870
POLYITAN 1 06 May 12:19:48 12:23:36 31° 264° (W) 12:27:25 437.675
TIGRISAT 06 May 12:24:58 12:27:57 16° 269° (W) 12:30:45 435.000
ZACube-1 06 May 12:25:22 12:28:49 21° 291° (WNW) 12:32:07 437.345
RS-15 06 May 12:26:58 12:37:02 47° 110° (ESE) 12:47:24 29.354- 29.394
HO-68 06 May 12:28:53 12:31:35 12° 305° (NW) 12:33:48 435.675
QB50P1 06 May 12:31:39 12:35:06 23° 266° (W) 12:38:30 145.935-145.965
UNISAT 6 06 May 12:36:02 12:38:01 12° 272° (W) 12:39:44 437.425
VERMONT LUNAR 06 May 12:36:59 12:40:16 75° 160° (SSE) 12:43:36 437.305
CUBEBUG 1 06 May 12:38:24 12:42:49 70° 102° (ESE) 12:47:12 437.445
BUGSAT 1 06 May 12:39:52 12:43:18 26° 265° (W) 12:46:42 437.445
DX 1 06 May 12:50:36 12:53:50 20° 292° (WNW) 12:56:57 434.975-435.025
YUBILEINY 06 May 13:03:20 13:06:39 12° 303° (WNW) 13:09:12 435.215
QB50P2 06 May 13:05:37 13:06:07 10° 271° (W) 13:06:19 145.880/145.840
Oscar 19 06 May 13:05:45 13:09:49 25° 68° (ENE) 13:14:02 437.125/150
VELOX 1 06 May 13:09:13 13:12:59 26° 290° (WNW) 13:16:40 145.980
SPROUT 06 May 13:11:52 13:16:00 42° 98° (E) 13:20:08 437.525
ESTCUBE 1 06 May 13:16:39 13:20:50 38° 288° (WNW) 13:24:59 437.505/2401.250
UKube-1 06 May 13:17:49 13:19:17 11° 295° (WNW) 13:20:30 .
TISAT 1 06 May 13:30:15 13:34:26 52° 100° (E) 13:38:36 437.305
PHONESAT 2.4 06 May 13:32:48 13:36:18 67° 159° (SSE) 13:39:50 2401.200-2431.200
AISAT 06 May 13:32:56 13:35:37 15° 293° (WNW) 13:38:07 437.250
Cosmos 2504 06 May 13:34:06 13:42:56 68° 280° (W) 13:51:27 435.465 / 435.565
ITAMSAT 1 06 May 14:07:10 14:11:30 29° 69° (ENE) 14:15:56 435.822/435.867
Gurwin Techsat 1B 06 May 14:08:46 14:13:05 27° 68° (ENE) 14:17:30 435.225
VERMONT LUNAR 06 May 14:14:33 14:17:47 49° 356° (N) 14:21:03 437.305
ISS 06 May 14:16:42 14:19:32 27° 31° (NNE) 14:22:23 145.825
CUBEBUG 1 06 May 14:17:47 14:18:40 10° 295° (WNW) 14:19:16 437.445
PCSat 06 May 14:20:54 14:24:07 16° 45° (NE) 14:27:31 145.827
ITUPSAT 1 06 May 14:33:18 14:37:41 36° 97° (E) 14:42:05 437.325
RS-15 06 May 14:38:57 14:49:26 49° 312° (NW) 15:00:06 29.354- 29.394
Oscar 19 06 May 14:44:13 14:49:00 37° 263° (W) 14:53:47 437.125/150
SPROUT 06 May 14:49:04 14:51:47 16° 292° (WNW) 14:54:19 437.525
BEESAT 06 May 14:55:56 15:00:40 67° 101° (ESE) 15:05:24 436.000
SWISSCUBE 06 May 15:00:31 15:05:18 82° 103° (ESE) 15:10:04 437.505
TISAT 1 06 May 15:07:46 15:09:49 13° 294° (WNW) 15:11:39 437.305
JAS-2 06 May 15:10:38 15:16:19 24° 65° (ENE) 15:21:55 435.910
PHONESAT 2.4 06 May 15:11:07 15:14:36 53° 354° (N) 15:18:06 2401.200-2431.200
GONETS M04 06 May 15:24:18 15:32:16 42° 88° (E) 15:40:26
AO-7 06 May 15:24:24 15:31:35 36° 62° (ENE) 15:38:56 29.400- 29.500
Cosmos 2504 06 May 15:34:52 15:38:14 12° 301° (WNW) 15:40:50 435.465 / 435.565
ITAMSAT 1 06 May 15:46:21 15:50:56 31° 264° (W) 15:55:29 435.822/435.867
Gurwin Techsat 1B 06 May 15:48:04 15:52:56 35° 263° (W) 15:57:46 435.225
VERMONT LUNAR 06 May 15:52:04 15:55:24 69° 13° (NNE) 15:58:45 437.305
ISS 06 May 15:52:59 15:55:53 29° 227° (SW) 15:58:45 145.825
CUSAT 1 06 May 16:01:55 16:06:17 43° 91° (E) 16:12:06 437.405
PCSat 06 May 16:02:49 16:08:15 78° 245° (WSW) 16:13:39 145.827
HORYU 2 06 May 16:07:15 16:11:44 74° 76° (ENE) 16:16:16 437.375
ITUPSAT 1 06 May 16:11:44 16:15:22 21° 292° (WNW) 16:18:53 437.325
DANDE 06 May 16:20:20 16:24:25 46° 91° (E) 16:29:57 436.750
KKS-1 06 May 16:23:28 16:27:59 78° 284° (WNW) 16:32:27 437.445
BEESAT 06 May 16:35:54 16:38:01 13° 296° (WNW) 16:39:53 436.000
SWISSCUBE 06 May 16:41:49 16:42:34 10° 297° (WNW) 16:43:01 437.505
MOZHAYETS 4 06 May 16:45:02 16:46:08 11° 88° (E) 16:47:32
STARS 06 May 16:48:10 16:52:36 66° 284° (WNW) 16:56:59 437.465
PHONESAT 2.4 06 May 16:49:30 16:53:03 66° 12° (NNE) 16:56:36 2401.200-2431.200
JAS-2 06 May 16:53:12 17:00:57 67° 259° (W) 17:08:08 435.910
RS-15 06 May 16:58:33 17:05:42 18° 343° (NNW) 17:12:44 29.354- 29.394
SO-50 06 May 17:08:04 17:11:29 19° 44° (NE) 17:15:02 436.795
AO-7 06 May 17:16:11 17:24:10 50° 259° (W) 17:32:08 29.400- 29.500
Cosmos 2499 06 May 17:17:39 17:25:34 41° 89° (E) 17:33:16 435.465 / 435.565
GONETS M04 06 May 17:21:01 17:29:10 40° 287° (WNW) 17:37:17
VERMONT LUNAR 06 May 17:29:39 17:32:41 31° 208° (SSW) 17:35:42 437.305
CUSAT 1 06 May 17:45:43 17:49:34 21° 298° (WNW) 17:54:02 437.405
DANDE 06 May 18:05:09 18:08:25 17° 299° (WNW) 18:12:03 436.750
MOZHAYETS 4 06 May 18:19:20 18:23:52 62° 285° (WNW) 18:28:20
CUTE-I 06 May 18:27:07 18:32:12 50° 72° (ENE) 18:37:21 437.470
PHONESAT 2.4 06 May 18:27:50 18:31:10 37° 207° (SSW) 18:34:30 2401.200-2431.200
Cubesat XI-IV 06 May 18:40:23 18:45:38 68° 75° (ENE) 18:50:57 437.490
SO-50 06 May 18:47:36 18:52:30 61° 243° (WSW) 18:57:18 436.795
CUBESAT XI-V 06 May 18:54:08 18:57:43 22° 93° (E) 19:01:24 437.345
PRISM 06 May 18:58:57 18:59:39 10° 90° (E) 19:00:37 437.425
STRAND 1 06 May 19:07:36 19:10:00 14° 90° (E) 19:12:43 437.568
Cosmos 2499 06 May 19:10:32 19:18:44 41° 285° (WNW) 19:26:27 435.465 / 435.565
RS-15 06 May 19:16:56 19:24:16 19° 19° (NNE) 19:32:06 29.354- 29.394
HO-68 06 May 19:21:02 19:24:00 13° 56° (NE) 19:27:24 435.675
AUBIESAT-1 06 May 19:22:56 19:24:59 15° 96° (E) 19:27:06 437.475
O/OREOS (USA 219) 06 May 19:39:11 19:42:22 19° 102° (ESE) 19:45:41 437.305
CUTE-I 06 May 20:08:57 20:12:38 18° 269° (W) 20:16:07 437.470
SEEDS 06 May 20:19:26 20:21:34 14° 67° (ENE) 20:23:52 437.485
Cubesat XI-IV 06 May 20:23:46 20:26:21 13° 271° (W) 20:28:36 437.490
M-CUBED/EXP-1 PRIME 06 May 20:25:58 20:29:41 61° 290° (WNW) 20:33:06 437.505
CUBESAT XI-V 06 May 20:31:05 20:35:13 32° 288° (WNW) 20:39:18 437.345
PRISM 06 May 20:31:30 20:35:30 53° 286° (WNW) 20:39:30 437.425
DOVE 4 06 May 20:35:36 20:39:17 26° 69° (ENE) 20:43:15 437.250
BRITE-PL 06 May 20:37:13 20:41:28 65° 75° (ENE) 20:46:04 437.365/2234.400
STRAND 1 06 May 20:44:40 20:49:42 62° 287° (WNW) 20:54:45 437.568
CANX-2 06 May 20:47:10 20:51:08 38° 73° (ENE) 20:55:10 2200.000
CUTE 1.7 + AOD 2 06 May 20:54:17 20:58:19 42° 74° (ENE) 21:02:24 437.475
AUBIESAT-1 06 May 20:56:44 20:59:58 28° 294° (WNW) 21:02:58 437.475
GOMX 1 06 May 20:58:39 21:03:01 70° 75° (ENE) 21:07:44 467.674
HO-68 06 May 21:03:32 21:10:42 75° 72° (ENE) 21:17:55 435.675
Cosmos 2491 06 May 21:05:15 21:11:54 26° 84° (E) 21:18:54 435.465 / 435.565
COMPASS 1 06 May 21:07:36 21:11:32 39° 73° (ENE) 21:15:30 437.405
YUBILEINY 06 May 21:11:38 21:20:08 55° 77° (ENE) 21:28:38 435.215
Oscar 11 06 May 21:13:29 21:16:27 19° 68° (ENE) 21:19:33 145.826/435.025
FUNcube-1 06 May 21:15:11 21:16:02 11° 64° (ENE) 21:17:10 145.935
O/OREOS (USA 219) 06 May 21:17:21 21:21:34 36° 297° (WNW) 21:25:45 437.305
CINEMA 3 06 May 21:24:14 21:28:32 42° 72° (ENE) 21:33:04 145.822/145.860
RS-15 06 May 21:29:20 21:40:28 51° 49° (NE) 21:52:09 29.354- 29.394
DELFI C3 06 May 21:29:29 21:32:20 19° 70° (ENE) 21:35:18 145.870
UWE-3 06 May 21:36:24 21:39:59 24° 69° (ENE) 21:43:44 435.000/436.395/437.385
CUBEBUG 2 06 May 21:36:29 21:40:24 30° 70° (ENE) 21:44:29 437.445
AAUSAT CUBESAT 2 06 May 21:39:12 21:43:25 81° 77° (ENE) 21:47:39 437.432
ZACube-1 06 May 21:43:02 21:46:28 22° 69° (ENE) 21:50:03 437.345
SEEDS 06 May 21:52:52 21:57:00 47° 261° (W) 22:01:08 437.485
DX 1 06 May 22:08:04 22:11:29 24° 69° (ENE) 22:14:59 434.975-435.025
JUGNU 06 May 22:10:24 22:13:11 13° 179° (S) 22:16:00 437.505
DOVE 4 06 May 22:13:07 22:16:59 28° 266° (W) 22:21:00 437.250
CANX-2 06 May 22:24:29 22:27:16 16° 269° (W) 22:29:53 2200.000
VELOX 1 06 May 22:29:19 22:32:20 19° 68° (ENE) 22:35:30 145.980
CUTE 1.7 + AOD 2 06 May 22:31:56 22:34:29 15° 269° (W) 22:36:51 437.475
UKube-1 06 May 22:32:20 22:36:22 41° 72° (ENE) 22:40:26 .
ESTCUBE 1 06 May 22:39:47 22:41:58 14° 66° (ENE) 22:44:22 437.505/2401.250
TIGRISAT 06 May 22:43:02 22:44:03 11° 88° (E) 22:45:22 435.000
SRMSAT 06 May 22:44:41 22:46:50 12° 173° (S) 22:49:03 437.500
COMPASS 1 06 May 22:44:48 22:47:26 15° 269° (W) 22:49:53 437.405
FUNcube-1 06 May 22:47:21 22:51:47 72° 259° (WSW) 22:56:21 145.935
Oscar 11 06 May 22:48:23 22:52:24 35° 263° (W) 22:56:24 145.826/435.025
AIST 1 06 May 22:48:42 22:50:21 12° 87° (E) 22:52:13
AISAT 06 May 22:51:14 22:55:09 34° 71° (ENE) 22:59:10 437.250
UNISAT 6 06 May 22:51:52 22:54:21 15° 90° (E) 22:57:01 437.425
50 SAT 06 May 22:53:25 22:57:04 35° 73° (ENE) 23:00:48 437.505
HO-68 06 May 22:54:23 22:59:13 18° 270° (W) 23:03:40 435.675
Cosmos 2491 06 May 22:59:35 23:08:12 61° 281° (WNW) 23:16:54 435.465 / 435.565
CINEMA 3 06 May 23:02:57 23:06:02 17° 270° (W) 23:09:01 145.822/145.860
DELFI C3 06 May 23:03:41 23:07:17 29° 264° (W) 23:10:52 145.870
BEESAT 3 06 May 23:04:22 23:06:21 14° 110° (ESE) 23:08:32 437.485
HUMSAT D 06 May 23:06:47 23:11:05 90° 160° (SSE) 23:15:26 437.325/437.525
YUBILEINY 06 May 23:09:18 23:16:33 29° 275° (W) 23:23:29 435.215
UWE-3 06 May 23:12:25 23:16:24 30° 265° (W) 23:20:25 435.000/436.395/437.385
CUBEBUG 2 06 May 23:13:22 23:17:06 24° 267° (W) 23:20:51 437.445
QB50P2 06 May 23:15:12 23:16:29 11° 89° (E) 23:18:00 145.880/145.840
ZACube-1 06 May 23:18:39 23:22:39 31° 264° (W) 23:26:42 437.345
BEESAT 2 06 May 23:21:33 23:24:16 18° 111° (ESE) 23:27:08 435.950
NANOSAT C BR1 06 May 23:23:25 23:25:36 14° 91° (E) 23:27:59 145.865
Cosmos 2504 06 May 23:30:23 23:37:21 39° 73° (ENE) 23:44:05 435.465 / 435.565
POPSAT HIP 1 06 May 23:31:59 23:34:53 18° 93° (E) 23:37:55 437.405
CUBEBUG 1 06 May 23:32:45 23:36:50 44° 73° (ENE) 23:40:59 437.445
ANTELSAT 06 May 23:32:57 23:37:21 42° 98° (E) 23:41:39 437.575/2403.000
RS-15 06 May 23:41:59 23:53:01 48° 249° (WSW) 00:04:16 29.354- 29.394
DX 1 06 May 23:43:55 23:47:38 27° 264° (W) 23:51:18 434.975-435.025
DUCHIFAT 1 06 May 23:52:02 23:55:47 30° 96° (E) 23:59:35 145.980
JUGNU 06 May 23:59:36 00:01:23 11° 189° (S) 00:03:05 437.505
AIST 2 07 May 00:03:06 00:05:30 15° 110° (ESE) 00:08:05 435.215
SPROUT 07 May 00:04:36 00:08:07 26° 70° (ENE) 00:11:43 437.525
VELOX 1 07 May 00:04:37 00:08:41 35° 263° (W) 00:12:44 145.980
POLYITAN 1 07 May 00:06:41 00:10:52 46° 99° (E) 00:15:02 437.675
UKube-1 07 May 00:10:06 00:12:44 15° 268° (W) 00:15:12 .
ESTCUBE 1 07 May 00:14:04 00:18:27 52° 260° (W) 00:22:51 437.505/2401.250
TIGRISAT 07 May 00:16:46 00:21:22 63° 285° (WNW) 00:25:49 435.000
QB50P1 07 May 00:17:40 00:21:57 63° 100° (E) 00:26:12 145.935-145.965
TISAT 1 07 May 00:20:52 00:24:30 30° 71° (ENE) 00:28:13 437.305
BUGSAT 1 07 May 00:23:07 00:27:12 47° 99° (E) 00:31:20 437.445
AIST 1 07 May 00:23:32 00:27:38 44° 281° (W) 00:31:44
UNISAT 6 07 May 00:27:01 00:31:29 47° 287° (WNW) 00:35:48 437.425
AISAT 07 May 00:28:38 00:31:52 19° 267° (W) 00:34:59 437.250
50 SAT 07 May 00:29:29 00:32:01 16° 268° (W) 00:34:24 437.505
SRMSAT 07 May 00:32:24 00:35:12 13° 183° (S) 00:37:58 437.500
BEESAT 3 07 May 00:40:03 00:43:59 47° 304° (NW) 00:47:59 437.485
QB50P2 07 May 00:48:33 00:52:47 54° 285° (WNW) 00:56:59 145.880/145.840
NANOSAT C BR1 07 May 00:57:37 01:01:43 44° 287° (WNW) 01:05:47 145.865
BEESAT 2 07 May 00:58:17 01:02:07 37° 306° (NW) 01:06:00 435.950
POPSAT HIP 1 07 May 01:06:57 01:10:54 34° 288° (WNW) 01:14:47 437.405
ANTELSAT 07 May 01:10:43 01:13:48 17° 293° (WNW) 01:16:42 437.575/2403.000
CUBEBUG 1 07 May 01:11:07 01:13:30 14° 269° (W) 01:15:40 437.445
Cosmos 2504 07 May 01:23:59 01:30:42 34° 273° (W) 01:36:58 435.465 / 435.565
DUCHIFAT 1 07 May 01:28:09 01:31:28 21° 291° (WNW) 01:34:39 145.980
GONETS M04 07 May 01:37:56 01:43:21 18° 62° (ENE) 01:49:15
ITUPSAT 1 07 May 01:38:22 01:42:39 35° 71° (ENE) 01:47:00 437.325
AIST 2 07 May 01:39:39 01:43:45 46° 305° (NW) 01:47:54 435.215
SPROUT 07 May 01:40:40 01:44:11 24° 266° (W) 01:47:38 437.525
POLYITAN 1 07 May 01:43:59 01:46:26 14° 293° (WNW) 01:48:40 437.675
QB50P1 07 May 01:56:03 01:57:21 11° 295° (WNW) 01:58:25 145.935-145.965
TISAT 1 07 May 01:57:13 02:00:21 20° 267° (W) 02:03:24 437.305
BUGSAT 1 07 May 02:00:05 02:02:20 14° 293° (WNW) 02:04:23 437.445
BEESAT 07 May 02:00:25 02:05:07 61° 74° (ENE) 02:09:50 436.000
SWISSCUBE 07 May 02:05:04 02:09:49 75° 75° (ENE) 02:14:36 437.505
ITAMSAT 1 07 May 02:24:08 02:25:20 11° 88° (E) 02:26:54 435.822/435.867
Gurwin Techsat 1B 07 May 02:28:48 02:30:16 11° 88° (E) 02:32:07 435.225
CUSAT 1 07 May 02:40:17 02:48:05 43° 73° (ENE) 02:55:33 437.405
Oscar 19 07 May 02:57:12 03:02:26 89° 285° (WNW) 03:07:37 437.125/150
DANDE 07 May 03:01:14 03:09:23 50° 74° (ENE) 03:17:26 436.750
ITUPSAT 1 07 May 03:16:54 03:20:39 22° 266° (W) 03:24:17 437.325
KKS-1 07 May 03:19:31 03:23:56 75° 76° (ENE) 03:28:25 437.445
GONETS M04 07 May 03:32:42 03:41:36 87° 264° (W) 03:50:23
BEESAT 07 May 03:41:22 03:43:27 12° 271° (W) 03:45:15 436.000
STARS 07 May 03:42:53 03:47:18 85° 79° (E) 03:51:45 437.465
ITAMSAT 1 07 May 04:00:19 04:05:31 77° 284° (WNW) 04:10:42 435.822/435.867
HORYU 2 07 May 04:01:48 04:04:31 16° 92° (E) 04:07:25 437.375
Gurwin Techsat 1B 07 May 04:05:36 04:10:56 77° 286° (WNW) 04:16:14 435.225
JAS-2 07 May 04:08:01 04:11:03 15° 88° (E) 04:14:15 435.910
CUSAT 1 07 May 04:23:05 04:30:47 41° 270° (W) 04:37:54 437.405
Oscar 19 07 May 04:39:57 04:41:06 10° 298° (WNW) 04:41:56 437.125/150
DANDE 07 May 04:44:49 04:52:30 38° 271° (W) 04:59:49 436.750
PCSat 07 May 05:01:20 05:04:44 18° 106° (ESE) 05:08:22 145.827
Cosmos 2499 07 May 05:04:04 05:11:25 66° 80° (E) 05:18:25 435.465 / 435.565
MOZHAYETS 4 07 May 05:18:59 05:23:38 84° 258° (WSW) 05:28:16
AO-7 07 May 05:19:21 05:27:39 65° 104° (ESE) 05:35:56 29.400- 29.500
GONETS M04 07 May 05:32:31 05:37:19 15° 281° (W) 05:41:28
HORYU 2 07 May 05:37:11 05:41:24 41° 288° (WNW) 05:45:33 437.375
M-CUBED/EXP-1 PRIME 07 May 05:39:26 05:41:33 13° 61° (ENE) 05:43:50 437.505
O/OREOS (USA 219) 07 May 05:50:03 05:53:52 27° 61° (ENE) 05:57:42 437.305
JAS-2 07 May 05:51:18 05:56:51 55° 288° (WNW) 06:01:57 435.910
CUBESAT XI-V 07 May 05:56:25 05:59:28 18° 68° (ENE) 06:02:41 437.345
AUBIESAT-1 07 May 06:07:46 06:11:21 22° 65° (ENE) 06:14:58 437.475
STRAND 1 07 May 06:21:37 06:24:51 18° 66° (ENE) 06:28:16 437.568
PCSat 07 May 06:42:25 06:47:45 56° 301° (WNW) 06:53:06 145.827
CUTE-I 07 May 06:46:44 06:50:52 23° 94° (E) 06:55:08 437.470
ISS 07 May 06:54:16 06:56:36 19° 131° (SE) 06:59:01 145.825
